STARLINK-2022 (47643 NORAD) Tracking and Keplerian Element Data

This shows tracking and keplerian element data for the satellite.

Feedback or suggestion? Click here.




ElementValue
Catalog47643
NameSTARLINK-2022
Epoch Orbit177
Epoch Day101.91668981
Epoch Year2021
RAAN188.9454
Inclination53.0475
Eccentricity0.0001625
Argument of Perigee29.858
Mean Anonmoly34.5239
Mean Motion15.7323376
Decay Rate-0.00017089
L11 47643U 21012Z 21101.91668981 -.00017089 00000-0 -11738-3 0 9993
L22 47643 53.0475 188.9454 0001625 29.8580 34.5239 15.73233760 1773

Live tracking and technical data element details for STARLINK-2022 (NORAD 47643). STARLINK-2022 can be tracked NOW for your location showing map with azimuth and elevation plus other details from your city location.

Track the satellite on the map from your city or location and see movement details for azimuth, elevation, latitude, longitude, range, height, and movement on the map or in text.







IsCatalogInMostPopularTable: catalog: 47643, numindb: 15
Update: records affected: 1



GetName: 47643 STARLINK-2022

Hit Count: updated at: Tue, 13 Apr 2021 04:44:13 GMT